Regional Weather Roundup
Issued by NWS

Home | Current Version | Previous Version | Text Only | Print | Product List | Glossary Off
Versions: 1 2 3 4 5 6 7 8 9 10 11 12 13 14 15 16 17 18 19 20 21 22 23 24 25 26 27 28 29 30 31 32 33 34 35 36 37 38 39 40 41 42 43 44 45 46 47 48 49 50

000
ASUS43 KDTX 052301
RWRMI
MICHIGAN HOURLY REGIONAL WEATHER ROUNDUP
NATIONAL WEATHER SERVICE DETROIT/PONTIAC MI
700 PM EDT TUE MAY 05 2015

NOTE: "FAIR" INDICATES FEW OR NO CLOUDS BELOW 12,000 FEET WITH NO
SIGNIFICANT WEATHER AND/OR OBSTRUCTION TO VISIBILITY.

MIZ047>049-052>055-059>063-066>070-074>076-081>083-060000-
SOUTHEAST LOWER MICHIGAN

CITY           SKY/WX    TMP DP  RH WIND       PRES   REMARKS
ADRIAN         LGT RAIN  52  50  93 E8        30.25S
ALMA           CLOUDY    58  46  63 SE5       30.27F
ANN ARBOR      RAIN      50  49  96 NE3       30.26F FOG
BAD AXE        CLOUDY    57  46  68 CALM      30.27F
CARO           CLOUDY    58  43  57 CALM      30.27S
DETROIT CITY   LGT RAIN  52  50  93 E3        30.27S FOG
DETROIT        LGT RAIN  54  48  82 CALM      30.27S FOG
FLINT          CLOUDY    55  48  77 SE6       30.27S
GROSSE ILE     RAIN      52  48  87 NE8       30.25S
HILLSDALE      CLOUDY    53  53 100 E8        30.24S FOG
HOWELL         DRIZZLE   52  51  97 NE3       30.26S

CITY           SKY/WX    TMP DP  RH WIND       PRES   REMARKS
JACKSON        LGT RAIN  50  48  93 E8        30.25F FOG
LAMBERTVILLE   CLOUDY    54  46  76 E8        30.25S
LANSING        CLOUDY    52  50  93 E7        30.27F
LAPEER         CLOUDY    54  49  85 CALM      30.27F
MASON          CLOUDY    50  48  93 CALM      30.26F
MONROE         LGT RAIN  52  48  87 NE6       30.25R
MT. CLEMENS    LGT RAIN  51  50  94 NE6       30.24F FOG
PONTIAC        LGT RAIN  52  50  93 E3        30.26S FOG
PORT HOPE        N/A     44  39  82 NW6       30.27S
PORT HURON     CLOUDY    48  48 100 CALM      30.28S
TRI CITIES     CLOUDY    59  42  53 E5        30.28S
MIDLAND        FAIR      61  39  44 E7        30.27S
TROY           RAIN      52  51  95 NE6       30.28S
SAGINAW HB     CLOUDY    59  41  51 NE7       30.27S
$$
MIZ043>046-050>051-056>058-064>065-071>073-077>080-060000-
SOUTHWEST LOWER MICHIGAN

CITY           SKY/WX    TMP DP  RH WIND       PRES   REMARKS
BATTLE CREEK   LGT RAIN  51  49  92 E7        30.24F
BENTON HARBOR  CLOUDY    53  51  93 E13       30.21R
BIG RAPIDS     PTSUNNY   63  24  22 SE10G18   30.25F
COLDWATER      LGT RAIN  52  51  96 NE7       30.22S
FREMONT        FAIR      60  32  34 E9        30.24F
HOLLAND        PTSUNNY   53  50  89 E12       30.24F
GRAND RAPIDS   CLOUDY    54  49  83 E12       30.26S
IONIA          PTSUNNY   55  49  81 E8        30.26S
KALAMAZOO      CLOUDY    52  48  86 E3        30.24S
LUDINGTON      CLOUDY    61  28  29 NW7       30.24F
MARSHALL       CLOUDY    49  47  94 E6        30.24F
MOUNT PLEASANT PTSUNNY   62  43  50 SE7       30.26S
MUSKEGON       PTSUNNY   61  46  57 E12       30.24S
SOUTH HAVEN    CLOUDY    54  50  88 E8        30.22S
$$
MIZ016>042-060000-
NORTHERN LOWER MICHIGAN

CITY           SKY/WX    TMP DP  RH WIND       PRES   REMARKS
ALPENA         SUNNY     60  45  57 E6        30.28S
BEAVER ISLAND  SUNNY     61  30  31 N3        30.26F
BELLAIRE       MOSUNNY   67  29  23 CALM      30.24F
CADILLAC       PTSUNNY   64  18  16 E7        30.24S
CHARLEVOIX     SUNNY     55  31  40 N5        30.28F
FRANKFORT      PTSUNNY   64  24  22 N5        30.23F
GAYLORD        SUNNY     66  17  15 E8        30.25S
GRAYLING       MOSUNNY   67  20  16 CALM      30.25F
HARBOR SPRINGS SUNNY     67  24  19 E8        30.26S
HOUGHTON LAKE  PTSUNNY   64  30  27 SW3       30.25F
MANISTEE       PTSUNNY   57  34  41 W6        30.24F
OSCODA         PTSUNNY   50  41  71 E5        30.27F
PELLSTON       SUNNY     68  26  20 E9        30.27S
ROGERS CITY    SUNNY     56  43  63 NE3       30.29F
TRAVERSE CITY  PTSUNNY   54  33  45 NE3       30.24S
$$
MIZ007>008-015-060000-
EASTERN UPPER MICHIGAN

CITY           SKY/WX    TMP DP  RH WIND       PRES   REMARKS
KINROSS        SUNNY     64  27  24 N8        30.27R
MACKINAC ISLAN SUNNY     64  28  25 S3        30.27S
NEWBERRY       SUNNY     65  29  25 S12G20    30.26S
S. S. MARIE    SUNNY     66  25  21 NW7       30.26S
MUNISING         N/A     51  32  48 E8        30.25S
$$
MIZ004>006-011>014-085-060000-
CENTRAL UPPER MICHIGAN

CITY           SKY/WX    TMP DP  RH WIND       PRES   REMARKS
MANISTIQUE     SUNNY     62  24  23 S3        30.26S
ESCANABA       SUNNY     63  27  25 S6        30.26F
MENOMINEE      PTSUNNY   61  28  29 E5        30.26F
SAWYER-GWINN   SUNNY     66  30  26 SW13      30.25S
$$
MIZ001>003-009>011-084-060000-
WESTERN UPPER MICHIGAN

CITY           SKY/WX    TMP DP  RH WIND       PRES   REMARKS
IRON MOUNTAIN  SUNNY     66  27  23 SE13      30.23F
HOUGHTON       SUNNY     60  28  29 E13       30.22F
COPPER HARBOR    N/A     64  26  23 VRB7      30.23S
IRONWOOD       SUNNY     72  30  21 SE9       30.13S
$$

ABBREVIATIONS USED IN REMARKS
   TC - TEMPERATURE IN CELSIUS
  WCI - WIND CHILL INDEX
   HX - HEAT INDEX
  VSB - VISIBILITY



USA.gov is the U.S. government's official web portal to all federal, state and local government web resources and services.